AD8PA-13 Weather Reports


Display with metric or nautical units.
time (UTC)temp
F
wind
direction
speed
MPH
gust
MPH
rain 1hr
in
rain 24hr
in
rain mn
in
humidity
%
barometer
mb
20260510204154 62 294 0.0 6.0 0.00 0.00 0.00 34 1018.7
20260510202653 59 301 6.0 7.0 0.00 0.00 0.00 32 1019.1
20260510201149 62 5 2.0 3.0 0.00 0.00 0.00 31 1018.9
20260510195646 62 266 2.0 6.0 0.00 0.00 0.00 32 1018.9
20260510194144 61 278 2.0 3.0 0.00 0.00 0.00 31 1019.1
20260510192643 61 221 9.0 10.0 0.00 0.00 0.00 30 1019.4
20260510191137 62 228 1.0 4.0 0.00 0.00 0.00 30 1019.2
20260510185634 60 241 4.0 6.0 0.00 0.00 0.00 30 1019.2
20260510184131 60 225 3.0 10.0 0.00 0.00 0.00 32 1019.4
20260510182630 61 338 0.0 2.0 0.00 0.00 0.00 32 1019.2
20260510181125 63 13 1.0 1.0 0.00 0.00 0.00 31 1019.1
20260510175620 59 318 2.0 7.0 0.00 0.00 0.00 33 1018.8
20260510174117 59 275 2.0 4.0 0.00 0.00 0.00 32 1018.7
20260510172616 59 32 0.0 4.0 0.00 0.00 0.00 37 1018.9
20260510171114 58 177 3.0 7.0 0.00 0.00 0.00 32 1018.9
20260510165608 58 276 1.0 3.0 0.00 0.00 0.00 37 1019.1
20260510164104 58 262 3.0 8.0 0.00 0.00 0.00 34 1019.0
20260510162602 58 217 1.0 6.0 0.00 0.00 0.00 35 1018.8
20260510161057 58 258 2.0 4.0 0.00 0.00 0.00 35 1019.2
20260510155557 58 339 1.0 3.0 0.00 0.00 0.00 38 1019.0
20260510154056 56 274 5.0 8.0 0.00 0.00 0.00 33 1018.6
20260510152556 56 243 3.0 7.0 0.00 0.00 0.00 35 1018.6
20260510151053 56 18 3.0 4.0 0.00 0.00 0.00 38 1018.4
20260510145552 55 198 1.0 4.0 0.00 0.00 0.00 40 1018.2
20260510144047 55 279 2.0 8.0 0.00 0.00 0.00 39 1018.2
20260510142547 54 198 1.0 2.0 0.00 0.00 0.00 40 1018.1
20260510141044 53 287 1.0 4.0 0.00 0.00 0.00 42 1017.9
20260510135540 52 34 1.0 2.0 0.00 0.00 0.00 45 1017.8
20260510134037 52 303 1.0 2.0 0.00 0.00 0.00 44 1017.8
20260510132537 52 63 1.0 2.0 0.00 0.00 0.00 47 1017.8
20260510131034 51 315 0.0 3.0 0.00 0.00 0.00 47 1017.5
20260510125530 50 333 1.0 3.0 0.00 0.00 0.00 48 1017.4
20260510124026 49 282 1.0 3.0 0.00 0.00 0.00 49 1017.3
20260510122525 49 254 2.0 3.0 0.00 0.00 0.00 51 1017.3
20260510121022 47 251 1.0 2.0 0.00 0.00 0.00 55 1017.1
20260510115517 47 46 2.0 3.0 0.00 0.00 0.00 57 1016.8
20260510114012 46 262 1.0 3.0 0.00 0.00 0.00 57 1016.6
20260510112508 43 287 0.0 1.0 0.00 0.00 0.00 65 1016.5
20260510111009 41 280 0.0 1.0 0.00 0.00 0.00 68 1016.3
20260510105508 40 276 0.0 0.0 0.00 0.00 0.00 73 1016.1
20260510104008 40 240 0.0 0.0 0.00 0.00 0.00 74 1015.7
20260510102504 40 268 0.0 1.0 0.00 0.00 0.00 72 1015.5
20260510101002 40 270 0.0 1.0 0.00 0.00 0.00 74 1015.7
20260510095502 40 308 0.0 0.0 0.00 0.00 0.00 74 1015.2
20260510093958 41 308 0.0 0.0 0.00 0.00 0.00 69 1015.1
20260510092454 43 258 0.0 0.0 0.00 0.00 0.00 65 1015.1
20260510090953 44 286 1.0 2.0 0.00 0.00 0.00 64 1015.0
20260510085452 44 34 1.0 2.0 0.00 0.00 0.00 65 1014.7
20260510083948 45 221 0.0 1.0 0.00 0.00 0.00 64 1014.6
20260510082444 45 50 0.0 1.0 0.00 0.00 0.00 62 1014.0
20260510080941 46 24 0.0 3.0 0.00 0.00 0.00 60 1013.6
20260510075440 46 30 1.0 3.0 0.00 0.00 0.00 58 1013.3
20260510073936 46 19 2.0 4.0 0.00 0.00 0.00 58 1013.0
20260510072431 47 306 1.0 1.0 0.00 0.00 0.00 61 1012.6
20260510070927 47 75 1.0 2.0 0.00 0.00 0.00 62 1012.2
20260510065422 48 236 1.0 3.0 0.00 0.00 0.00 61 1012.1
20260510063918 48 297 0.0 0.0 0.00 0.00 0.00 61 1012.1
20260510062413 49 2 0.0 2.0 0.00 0.00 0.00 62 1012.0
20260510060913 49 241 1.0 1.0 0.00 0.00 0.00 60 1011.8
20260510055414 48 274 0.0 1.0 0.00 0.00 0.00 66 1011.8
20260510053909 48 114 0.0 0.0 0.00 0.00 0.00 69 1011.5
20260510052409 49 14 0.0 0.0 0.00 0.00 0.00 67 1011.1
20260510050904 51 52 0.0 0.0 0.00 0.00 0.00 63 1010.8
20260510045400 52 337 1.0 1.0 0.00 0.00 0.00 60 1010.5
20260510043856 52 262 1.0 1.0 0.00 0.00 0.00 59 1010.5
20260510042352 53 22 0.0 1.0 0.00 0.00 0.00 58 1009.9
20260510040849 53 274 0.0 0.0 0.00 0.00 0.00 59 1010.0
20260510035349 54 288 0.0 3.0 0.00 0.07 0.07 56 1009.8
20260510033845 55 286 0.0 1.0 0.00 0.07 0.07 55 1009.6
20260510032341 56 273 1.0 2.0 0.00 0.07 0.07 53 1009.6
20260510030838 57 293 1.0 3.0 0.00 0.07 0.07 51 1009.3
20260510025335 57 234 1.0 7.0 0.00 0.07 0.07 49 1009.1
20260510023830 58 332 2.0 8.0 0.00 0.07 0.07 47 1008.9
20260510022328 59 346 0.0 3.0 0.00 0.07 0.07 47 1008.5
20260510020828 61 293 3.0 6.0 0.00 0.07 0.07 46 1008.0
20260510015326 62 245 2.0 10.0 0.00 0.07 0.07 46 1007.5
20260510013826 61 279 1.0 1.0 0.00 0.07 0.07 51 1007.0
20260510012323 62 273 0.0 3.0 0.00 0.07 0.07 51 1006.5
20260510010822 61 250 0.0 1.0 0.00 0.07 0.07 51 1005.8
20260510005319 62 278 0.0 1.0 0.00 0.07 0.07 50 1005.7
20260510003817 63 326 0.0 2.0 0.00 0.07 0.07 49 1005.4
20260510002316 64 268 1.0 4.0 0.00 0.07 0.07 46 1005.1
20260510000812 65 263 0.0 4.0 0.00 0.07 0.07 45 1005.0
20260509235309 66 36 0.0 6.0 0.00 0.07 0.07 43 1004.7
20260509233806 67 242 1.0 4.0 0.00 0.07 0.07 42 1004.7
20260509232306 68 7 2.0 6.0 0.00 0.07 0.07 41 1004.5
20260509230759 68 195 4.0 11.0 0.00 0.07 0.07 39 1004.6
20260509225259 69 294 4.0 15.0 0.00 0.07 0.07 39 1004.6
20260509223755 69 276 4.0 11.0 0.00 0.07 0.07 37 1004.4
20260509222250 69 205 4.0 9.0 0.00 0.07 0.07 37 1003.9
20260509220750 69 154 6.0 11.0 0.00 0.07 0.07 38 1003.8
20260509215245 71 265 2.0 7.0 0.00 0.07 0.07 36 1003.5
20260509213742 71 288 5.0 9.0 0.00 0.07 0.07 37 1003.2
20260509212238 70 292 9.0 14.0 0.00 0.07 0.07 38 1003.1
20260509210738 70 135 5.0 8.0 0.00 0.07 0.07 40 1003.4
20260509205236 69 332 2.0 6.0 0.00 0.07 0.07 43 1003.4